Location: Azul
(36.7830°S, 59.8500°W)
Time: 18:56:02
(UTC-03:00)

ISS - Pass Details

Date: 08 August 2020
Orbit: 418 x 420 km, 51.6° (Epoch: 08 August)

Event Time Altitude Azimuth Distance (km) Brightness Sun altitude
Exits shadow 06:09:59 18° 176° (S) 1,136 -1.6 -20.3°
Maximum altitude 06:11:01 20° 152° (SSE) 1,048 -1.5 -20.1°
Drops below altitude 10° 06:13:38 10° 101° (ESE) 1,519 0.2 -19.6°
Sets 06:16:07 0° 84° (E) 2,378 1.8 -19.1°
